FW6148 Weather Reports


Display with metric or nautical units.
time (UTC)temp
F
wind
direction
speed
MPH
gust
MPH
rain 1hr
in
rain 24hr
in
rain mn
in
humidity
%
barometer
mb
20260906082033 53 0 0.0 0.0 0.00 0.00 0.00 76 1015.6
20260906081550 53 0 0.0 0.0 0.00 0.00 0.00 74 1015.7
20260906081025 53 0 0.0 0.0 0.00 0.00 0.00 74 1015.8
20260906080526 53 0 0.0 0.0 0.00 0.00 0.00 73 1015.8
20260906080045 53 0 0.0 0.0 0.00 0.00 0.00 73 1015.8
20260906075529 53 0 0.0 0.0 0.00 0.00 0.00 72 1015.8
20260906075029 53 0 0.0 0.0 0.00 0.00 0.00 72 1015.9
20260906074554 54 0 0.0 0.0 0.00 0.00 0.00 71 1015.9
20260906074025 54 0 0.0 2.0 0.00 0.00 0.00 70 1016.1
20260906073525 55 0 0.0 3.0 0.00 0.00 0.00 69 1016.0
20260906073047 55 0 0.0 3.0 0.00 0.00 0.00 70 1016.0
20260906072527 54 360 1.0 3.0 0.00 0.00 0.00 70 1016.0
20260906072025 54 0 0.0 0.0 0.00 0.00 0.00 70 1016.1
20260906071549 55 0 0.0 1.0 0.00 0.00 0.00 68 1016.1
20260906071026 55 0 0.0 4.0 0.00 0.00 0.00 67 1016.1
20260906070525 56 360 1.0 4.0 0.00 0.00 0.00 67 1016.0
20260906070045 56 360 1.0 3.0 0.00 0.00 0.00 67 1016.2
20260906065531 56 360 1.0 3.0 0.00 0.00 0.00 67 1016.1
20260906065026 56 360 0.0 3.0 0.00 0.00 0.00 67 1016.2
20260906064552 56 0 0.0 3.0 0.00 0.00 0.00 66 1016.4
20260906064029 56 360 1.0 3.0 0.00 0.00 0.00 67 1016.4
20260906063528 56 360 1.0 3.0 0.00 0.00 0.00 66 1016.4
20260906063050 56 360 2.0 3.0 0.00 0.00 0.00 66 1016.5
20260906062528 56 0 0.0 2.0 0.00 0.00 0.00 66 1016.5
20260906062028 56 0 0.0 2.0 0.00 0.00 0.00 65 1016.6
20260906061546 57 0 0.0 2.0 0.00 0.00 0.00 64 1016.7
20260906061025 57 0 0.0 2.0 0.00 0.00 0.00 63 1016.6
20260906060532 58 360 0.0 3.0 0.00 0.00 0.00 63 1016.6
20260906060046 58 0 0.0 3.0 0.00 0.00 0.00 62 1016.6
20260906055525 59 360 2.0 3.0 0.00 0.00 0.00 61 1016.7
20260906055028 59 360 2.0 3.0 0.00 0.00 0.00 61 1016.6
20260906054551 59 360 1.0 3.0 0.00 0.00 0.00 61 1016.7
20260906054029 60 0 0.0 3.0 0.00 0.00 0.00 60 1016.6
20260906053527 60 0 0.0 3.0 0.00 0.00 0.00 59 1016.6
20260906053050 60 360 0.0 2.0 0.00 0.00 0.00 59 1016.7
20260906052529 60 0 0.0 0.0 0.00 0.00 0.00 59 1016.5
20260906052029 61 0 0.0 1.0 0.00 0.00 0.00 59 1016.6
20260906051601 60 0 0.0 5.0 0.00 0.00 0.00 58 1016.7
20260906051029 60 0 0.0 5.0 0.00 0.00 0.00 59 1016.9
20260906050525 59 360 2.0 4.0 0.00 0.00 0.00 61 1016.7
20260906050049 58 0 0.0 4.0 0.00 0.00 0.00 62 1016.6
20260906045528 58 360 1.0 4.0 0.00 0.00 0.00 61 1016.7
20260906045028 58 0 0.0 4.0 0.00 0.00 0.00 61 1017.1
20260906044557 58 360 1.0 4.0 0.00 0.00 0.00 62 1017.3
20260906044029 58 360 0.0 4.0 0.00 0.00 0.00 62 1017.0
20260906043526 58 0 0.0 0.0 0.00 0.00 0.00 62 1017.0
20260906043045 58 0 0.0 0.0 0.00 0.00 0.00 61 1016.9
20260906042525 58 0 0.0 2.0 0.00 0.00 0.00 61 1016.8
20260906042025 59 0 0.0 3.0 0.00 0.00 0.00 60 1016.9
20260906041557 58 360 1.0 3.0 0.00 0.00 0.00 61 1016.9
20260906041030 58 360 1.0 3.0 0.00 0.00 0.00 61 1016.7
20260906040527 58 360 0.0 3.0 0.00 0.00 0.00 61 1016.8
20260906035525 59 0 0.0 2.0 0.00 0.00 0.00 60 1016.8
20260906035032 59 0 0.0 3.0 0.00 0.00 0.00 60 1016.7
20260906034551 59 0 1.0 3.0 0.00 0.00 0.00 59 1016.7
20260906034026 60 360 1.0 4.0 0.00 0.00 0.00 60 1016.7
20260906033526 59 360 2.0 4.0 0.00 0.00 0.00 59 1016.7
20260906033050 60 360 1.0 3.0 0.00 0.00 0.00 59 1016.7
20260906032525 60 0 0.0 1.0 0.00 0.00 0.00 58 1016.6
20260906032027 61 0 0.0 3.0 0.00 0.00 0.00 56 1016.6
20260906031553 61 0 0.0 3.0 0.00 0.00 0.00 56 1016.4
20260906031026 61 360 0.0 3.0 0.00 0.00 0.00 56 1016.4
20260906030525 61 360 0.0 0.0 0.00 0.00 0.00 56 1016.2
20260906030052 62 0 0.0 3.0 0.00 0.00 0.00 55 1016.3
20260906025528 62 0 0.0 3.0 0.00 0.00 0.00 54 1016.2
20260906025027 62 360 1.0 2.0 0.00 0.00 0.00 54 1016.1
20260906024551 62 0 0.0 3.0 0.00 0.00 0.00 53 1016.0
20260906024027 63 0 0.0 3.0 0.00 0.00 0.00 53 1015.9
20260906023528 63 0 1.0 3.0 0.00 0.00 0.00 51 1016.0
20260906023044 65 0 0.0 3.0 0.00 0.00 0.00 50 1015.8
20260906022531 65 360 0.0 3.0 0.00 0.00 0.00 49 1015.8
20260906022028 66 360 0.0 2.0 0.00 0.00 0.00 49 1015.7
20260906021547 66 360 0.0 3.0 0.00 0.00 0.00 48 1015.8
20260906021025 67 0 0.0 3.0 0.00 0.00 0.00 47 1015.6
20260906020534 68 360 0.0 3.0 0.00 0.00 0.00 46 1015.8
20260906020046 69 0 0.0 0.0 0.00 0.00 0.00 44 1015.7
20260906015526 70 0 0.0 2.0 0.00 0.00 0.00 44 1015.6
20260906015026 71 0 0.0 2.0 0.00 0.00 0.00 43 1015.6
20260906014633 71 0 0.0 4.0 0.00 0.00 0.00 42 1015.6
20260906014027 72 0 0.0 4.0 0.00 0.00 0.00 40 1015.6
20260906013528 72 0 1.0 4.0 0.00 0.00 0.00 39 1015.6
20260906013059 73 0 1.0 4.0 0.00 0.00 0.00 39 1015.5
20260906012528 74 360 0.0 4.0 0.00 0.00 0.00 39 1015.6
20260906012031 74 360 1.0 4.0 0.00 0.00 0.00 38 1015.6
20260906011554 74 360 2.0 4.0 0.00 0.00 0.00 38 1015.6
20260906011026 75 360 2.0 4.0 0.00 0.00 0.00 37 1015.5
20260906010527 75 0 0.0 2.0 0.00 0.00 0.00 37 1015.6
20260906010053 76 0 0.0 4.0 0.00 0.00 0.00 37 1015.6
20260906005525 76 360 1.0 5.0 0.00 0.00 0.00 36 1015.5
20260906005027 77 0 0.0 8.0 0.00 0.00 0.00 36 1015.6
20260906004610 77 360 2.0 14.0 0.00 0.00 0.00 35 1015.5
20260906004036 78 360 5.0 14.0 0.00 0.00 0.00 34 1015.3
20260906003526 79 53 5.0 10.0 0.00 0.00 0.00 33 1015.3
20260906003108 80 30 3.0 12.0 0.00 0.00 0.00 33 1015.3
20260906002525 80 43 3.0 12.0 0.00 0.00 0.00 33 1015.2
20260906002027 80 342 6.0 12.0 0.00 0.00 0.00 32 1015.3
20260906001551 81 44 5.0 13.0 0.00 0.00 0.00 33 1015.4
20260906001027 81 42 3.0 13.0 0.00 0.00 0.00 32 1015.4
20260906000526 82 56 6.0 12.0 0.00 0.00 0.00 31 1015.5
20260906000047 83 69 5.0 10.0 0.00 0.00 0.00 31 1015.4
20260905235528 83 53 4.0 10.0 0.00 0.00 0.00 30 1015.3
20260905235030 83 59 5.0 10.0 0.00 0.00 0.00 30 1015.4
20260905234544 84 55 5.0 9.0 0.00 0.00 0.00 30 1015.3
20260905234029 84 96 5.0 9.0 0.00 0.00 0.00 30 1015.3
20260905233533 84 51 4.0 8.0 0.00 0.00 0.00 29 1015.2
20260905233050 83 59 4.0 9.0 0.00 0.00 0.00 30 1015.1
20260905232533 83 43 4.0 9.0 0.00 0.00 0.00 30 1015.3
20260905232027 83 28 5.0 9.0 0.00 0.00 0.00 30 1015.2
20260905231549 83 57 3.0 10.0 0.00 0.00 0.00 31 1015.3
20260905231026 83 42 4.0 10.0 0.00 0.00 0.00 31 1015.3
20260905230526 83 61 4.0 10.0 0.00 0.00 0.00 31 1015.3
20260905230051 83 65 3.0 9.0 0.00 0.00 0.00 29 1015.2
20260905225528 83 59 3.0 9.0 0.00 0.00 0.00 29 1015.3
20260905225027 83 47 0.0 9.0 0.00 0.00 0.00 29 1015.3
20260905224549 83 42 3.0 9.0 0.00 0.00 0.00 29 1015.4
20260905224025 84 63 4.0 10.0 0.00 0.00 0.00 29 1015.4
20260905223527 83 88 4.0 10.0 0.00 0.00 0.00 29 1015.5
20260905223046 84 64 5.0 10.0 0.00 0.00 0.00 29 1015.6
20260905222527 83 96 5.0 8.0 0.00 0.00 0.00 29 1015.6
20260905222026 83 121 2.0 8.0 0.00 0.00 0.00 30 1015.6
20260905221610 83 49 2.0 8.0 0.00 0.00 0.00 29 1015.6
20260905221027 83 129 1.0 12.0 0.00 0.00 0.00 30 1015.6
20260905220530 83 88 4.0 12.0 0.00 0.00 0.00 29 1015.6
20260905220055 83 75 7.0 12.0 0.00 0.00 0.00 29 1015.7
20260905215529 83 52 5.0 9.0 0.00 0.00 0.00 29 1015.7
20260905215027 83 74 3.0 8.0 0.00 0.00 0.00 29 1015.7
20260905214600 83 132 3.0 9.0 0.00 0.00 0.00 30 1015.8
20260905214026 82 102 4.0 9.0 0.00 0.00 0.00 31 1015.8
20260905213528 82 155 2.0 10.0 0.00 0.00 0.00 30 1015.8
20260905213058 82 30 3.0 10.0 0.00 0.00 0.00 30 1015.8
20260905212527 82 186 2.0 10.0 0.00 0.00 0.00 30 1015.8
20260905212026 82 99 5.0 10.0 0.00 0.00 0.00 30 1016.0
20260905211546 82 115 5.0 10.0 0.00 0.00 0.00 31 1016.0
20260905211026 81 30 2.0 10.0 0.00 0.00 0.00 31 1015.9
20260905210529 82 360 3.0 10.0 0.00 0.00 0.00 31 1016.0
20260905210058 81 92 4.0 11.0 0.00 0.00 0.00 30 1016.0
20260905205530 81 68 5.0 11.0 0.00 0.00 0.00 30 1015.9
20260905205029 81 349 1.0 12.0 0.00 0.00 0.00 31 1016.0
20260905204548 81 338 2.0 12.0 0.00 0.00 0.00 31 1016.0
20260905204027 81 360 6.0 12.0 0.00 0.00 0.00 30 1016.1
20260905203528 81 360 4.0 11.0 0.00 0.00 0.00 31 1016.1
20260905203046 81 135 6.0 11.0 0.00 0.00 0.00 30 1016.1
20260905202527 80 86 5.0 11.0 0.00 0.00 0.00 31 1016.1
20260905202026 80 118 6.0 11.0 0.00 0.00 0.00 30 1016.2
20260905201601 80 57 5.0 11.0 0.00 0.00 0.00 30 1016.1
20260905201026 80 107 3.0 11.0 0.00 0.00 0.00 31 1016.3
20260905200528 80 105 4.0 15.0 0.00 0.00 0.00 31 1016.3
20260905200049 80 360 6.0 15.0 0.00 0.00 0.00 30 1016.3
20260905195527 79 57 8.0 14.0 0.00 0.00 0.00 32 1016.3
20260905195028 79 30 7.0 14.0 0.00 0.00 0.00 31 1016.2
20260905194600 79 100 6.0 13.0 0.00 0.00 0.00 31 1016.2
20260905194028 78 67 7.0 13.0 0.00 0.00 0.00 31 1016.3
20260905193530 78 35 8.0 14.0 0.00 0.00 0.00 31 1016.2
20260905193054 79 50 7.0 14.0 0.00 0.00 0.00 31 1016.3
20260905192527 79 360 4.0 15.0 0.00 0.00 0.00 31 1016.3
20260905192028 79 360 8.0 15.0 0.00 0.00 0.00 30 1016.3
20260905191556 78 360 8.0 14.0 0.00 0.00 0.00 32 1016.3
20260905191028 79 360 6.0 16.0 0.00 0.00 0.00 32 1016.4
20260905190525 79 360 7.0 16.0 0.00 0.00 0.00 32 1016.4
20260905190054 78 360 8.0 16.0 0.00 0.00 0.00 32 1016.3
20260905185526 78 360 6.0 15.0 0.00 0.00 0.00 32 1016.4
20260905185027 78 360 9.0 18.0 0.00 0.00 0.00 32 1016.5
20260905184555 78 360 8.0 18.0 0.00 0.00 0.00 32 1016.4
20260905184028 78 360 7.0 18.0 0.00 0.00 0.00 31 1016.5
20260905183527 78 360 6.0 16.0 0.00 0.00 0.00 34 1016.6
20260905183045 77 360 9.0 14.0 0.00 0.00 0.00 32 1016.6
20260905182531 76 360 6.0 14.0 0.00 0.00 0.00 35 1016.6
20260905182027 77 360 8.0 14.0 0.00 0.00 0.00 34 1016.5
20260905181607 77 360 8.0 14.0 0.00 0.00 0.00 34 1016.7
20260905181032 77 360 7.0 16.0 0.00 0.00 0.00 34 1016.7
20260905180528 76 360 8.0 16.0 0.00 0.00 0.00 34 1016.7
20260905180052 76 360 8.0 15.0 0.00 0.00 0.00 35 1016.6
20260905175526 76 360 7.0 15.0 0.00 0.00 0.00 34 1016.7
20260905175024 76 360 7.0 15.0 0.00 0.00 0.00 34 1016.7
20260905174556 76 360 7.0 14.0 0.00 0.00 0.00 34 1016.7
20260905174027 75 360 6.0 16.0 0.00 0.00 0.00 35 1016.7
20260905173526 75 360 7.0 18.0 0.00 0.00 0.00 35 1016.8
20260905173048 75 360 8.0 18.0 0.00 0.00 0.00 35 1016.7
20260905172526 74 360 10.0 16.0 0.00 0.00 0.00 35 1016.7
20260905172027 75 360 9.0 16.0 0.00 0.00 0.00 35 1016.8
20260905171544 74 360 9.0 16.0 0.00 0.00 0.00 36 1016.8
20260905171025 74 360 9.0 14.0 0.00 0.00 0.00 37 1016.8
20260905170528 74 360 8.0 14.0 0.00 0.00 0.00 37 1016.7
20260905170051 74 360 8.0 14.0 0.00 0.00 0.00 36 1016.8
20260905165525 74 360 7.0 14.0 0.00 0.00 0.00 36 1016.7
20260905165028 74 360 8.0 14.0 0.00 0.00 0.00 37 1016.7
20260905164552 74 360 8.0 14.0 0.00 0.00 0.00 36 1016.6
20260905164025 73 360 5.0 13.0 0.00 0.00 0.00 36 1016.7
20260905163525 73 360 8.0 13.0 0.00 0.00 0.00 36 1016.7
20260905163045 73 360 5.0 13.0 0.00 0.00 0.00 36 1016.6
20260905162530 73 360 5.0 14.0 0.00 0.00 0.00 37 1016.5
20260905162034 72 360 7.0 14.0 0.00 0.00 0.00 37 1016.5
20260905161558 72 360 7.0 12.0 0.00 0.00 0.00 37 1016.4
20260905161028 71 360 6.0 14.0 0.00 0.00 0.00 37 1016.4
20260905160528 71 360 6.0 15.0 0.00 0.00 0.00 38 1016.3
20260905160052 71 360 9.0 15.0 0.00 0.00 0.00 38 1016.3
20260905155526 70 360 6.0 13.0 0.00 0.00 0.00 38 1016.3
20260905155024 70 360 6.0 13.0 0.00 0.00 0.00 37 1016.2
20260905154559 70 360 7.0 13.0 0.00 0.00 0.00 38 1016.3
20260905154026 70 360 6.0 12.0 0.00 0.00 0.00 39 1016.3
20260905153527 69 360 6.0 15.0 0.00 0.00 0.00 39 1016.3
20260905153051 69 360 6.0 15.0 0.00 0.00 0.00 39 1016.3
20260905152526 68 360 5.0 14.0 0.00 0.00 0.00 40 1016.3
20260905152025 68 360 6.0 12.0 0.00 0.00 0.00 40 1016.4
20260905151601 68 360 6.0 12.0 0.00 0.00 0.00 40 1016.5
20260905151029 67 360 6.0 12.0 0.00 0.00 0.00 41 1016.5
20260905150530 67 360 7.0 12.0 0.00 0.00 0.00 41 1016.4
20260905150051 67 360 6.0 12.0 0.00 0.00 0.00 42 1016.5
20260905145527 66 360 6.0 13.0 0.00 0.00 0.00 42 1016.6
20260905145026 66 360 6.0 13.0 0.00 0.00 0.00 43 1016.5
20260905144549 66 360 6.0 13.0 0.00 0.00 0.00 43 1016.6
20260905144032 65 360 6.0 11.0 0.00 0.00 0.00 43 1016.6
20260905143528 65 360 6.0 11.0 0.00 0.00 0.00 43 1016.6
20260905143046 65 360 6.0 11.0 0.00 0.00 0.00 43 1016.6
20260905142528 64 360 7.0 14.0 0.00 0.00 0.00 43 1016.6
20260905142026 64 360 7.0 14.0 0.00 0.00 0.00 43 1016.6
20260905141556 64 360 6.0 12.0 0.00 0.00 0.00 44 1016.6
20260905141029 63 360 6.0 13.0 0.00 0.00 0.00 44 1016.7
20260905140526 63 360 7.0 13.0 0.00 0.00 0.00 44 1016.7
20260905140050 63 360 8.0 13.0 0.00 0.00 0.00 44 1016.7
20260905135530 62 360 8.0 13.0 0.00 0.00 0.00 45 1016.6
20260905135028 62 360 7.0 15.0 0.00 0.00 0.00 46 1016.6
20260905134552 62 360 8.0 15.0 0.00 0.00 0.00 46 1016.7
20260905134026 61 360 9.0 15.0 0.00 0.00 0.00 46 1016.6
20260905133525 61 360 7.0 15.0 0.00 0.00 0.00 47 1016.6
20260905133055 61 360 7.0 16.0 0.00 0.00 0.00 47 1016.4
20260905132527 60 360 8.0 16.0 0.00 0.00 0.00 47 1016.4
20260905132032 60 360 9.0 13.0 0.00 0.00 0.00 48 1016.3
20260905131544 59 360 5.0 11.0 0.00 0.00 0.00 50 1016.2
20260905131025 58 360 4.0 11.0 0.00 0.00 0.00 51 1016.2
20260905130527 57 360 1.0 4.0 0.00 0.00 0.00 51 1016.2
20260905130051 57 0 1.0 5.0 0.00 0.00 0.00 51 1016.1
20260905125528 58 360 1.0 5.0 0.00 0.00 0.00 50 1015.9
20260905125026 58 360 1.0 9.0 0.00 0.00 0.00 50 1015.9
20260905124551 59 360 3.0 12.0 0.00 0.00 0.00 50 1015.9
20260905124025 59 360 6.0 12.0 0.00 0.00 0.00 50 1015.9
20260905123525 58 360 8.0 12.0 0.00 0.00 0.00 51 1015.7
20260905123045 57 360 5.0 10.0 0.00 0.00 0.00 53 1015.6
20260905122530 56 360 2.0 8.0 0.00 0.00 0.00 54 1015.6
20260905122027 55 360 1.0 3.0 0.00 0.00 0.00 54 1015.6
20260905121551 56 0 0.0 4.0 0.00 0.00 0.00 54 1015.6
20260905121029 56 360 2.0 4.0 0.00 0.00 0.00 53 1015.6
20260905120527 56 360 1.0 4.0 0.00 0.00 0.00 52 1015.5
20260905120049 57 360 2.0 4.0 0.00 0.00 0.00 52 1015.5
20260905115528 58 360 2.0 4.0 0.00 0.00 0.00 51 1015.5
20260905115026 58 360 1.0 5.0 0.00 0.00 0.00 50 1015.5
20260905114545 59 360 2.0 9.0 0.00 0.00 0.00 50 1015.4
20260905114025 59 360 3.0 9.0 0.00 0.00 0.00 49 1015.5
20260905113526 60 360 2.0 9.0 0.00 0.00 0.00 48 1015.5
20260905113051 60 360 3.0 9.0 0.00 0.00 0.00 49 1015.3
20260905112526 59 360 1.0 8.0 0.00 0.00 0.00 49 1015.3
20260905112030 59 360 3.0 11.0 0.00 0.00 0.00 49 1015.2
20260905111603 59 360 3.0 11.0 0.00 0.00 0.00 50 1015.2
20260905111025 59 360 4.0 11.0 0.00 0.00 0.00 51 1015.2
20260905110526 58 360 2.0 4.0 0.00 0.00 0.00 51 1015.1
20260905110056 58 360 2.0 3.0 0.00 0.00 0.00 51 1015.0
20260905105533 59 360 2.0 3.0 0.00 0.00 0.00 50 1015.0
20260905105026 59 360 2.0 5.0 0.00 0.00 0.00 50 1015.2
20260905104557 59 360 2.0 5.0 0.00 0.00 0.00 50 1015.0
20260905104025 59 360 2.0 4.0 0.00 0.00 0.00 50 1015.0
20260905103526 59 360 2.0 4.0 0.00 0.00 0.00 50 1015.0
20260905103043 59 360 3.0 5.0 0.00 0.00 0.00 50 1015.0
20260905102526 59 360 2.0 5.0 0.00 0.00 0.00 50 1014.8
20260905102026 59 360 3.0 4.0 0.00 0.00 0.00 50 1014.7
20260905101552 59 360 2.0 4.0 0.00 0.00 0.00 50 1014.7
20260905101028 59 360 2.0 4.0 0.00 0.00 0.00 49 1014.7
20260905100529 60 360 0.0 4.0 0.00 0.00 0.00 49 1014.9
20260905100057 60 360 2.0 4.0 0.00 0.00 0.00 48 1014.8
20260905095527 60 360 1.0 4.0 0.00 0.00 0.00 48 1014.7
20260905095030 61 360 2.0 4.0 0.00 0.00 0.00 47 1014.6
20260905094547 61 360 1.0 6.0 0.00 0.00 0.00 46 1014.4
20260905094025 62 360 2.0 10.0 0.00 0.00 0.00 46 1014.4
20260905093530 62 360 3.0 10.0 0.00 0.00 0.00 45 1014.3
20260905093043 63 360 3.0 10.0 0.00 0.00 0.00 46 1014.2
20260905092530 62 360 3.0 5.0 0.00 0.00 0.00 46 1014.1
20260905092029 62 360 3.0 5.0 0.00 0.00 0.00 47 1014.1
20260905091608 62 360 1.0 5.0 0.00 0.00 0.00 47 1014.1
20260905091025 62 360 2.0 5.0 0.00 0.00 0.00 47 1014.0
20260905090527 62 360 1.0 4.0 0.00 0.00 0.00 46 1014.0
20260905090048 62 360 1.0 5.0 0.00 0.00 0.00 46 1014.0
20260905085526 62 360 3.0 5.0 0.00 0.00 0.00 45 1013.9
20260905085026 63 360 2.0 4.0 0.00 0.00 0.00 45 1014.0
20260905084606 63 360 1.0 4.0 0.00 0.00 0.00 44 1013.8
20260905084028 64 360 2.0 5.0 0.00 0.00 0.00 43 1013.8
20260905083526 64 360 1.0 5.0 0.00 0.00 0.00 42 1013.7
20260905083053 65 360 2.0 6.0 0.00 0.00 0.00 41 1013.8
20260905082525 66 360 2.0 6.0 0.00 0.00 0.00 41 1013.6